Location: Audinghen
(50.8518°N, 1.6129°E)
Time: 16:00:27
(UTC+00:00)

IRS-1C - Pass Details

Date: 07 August 2020
Orbit: 816 x 817 km, 98.8° (Epoch: 18 September)

Event Time Altitude Azimuth Distance (km) Brightness Sun altitude
Rises 02:26:28 0° 17° (NNE) 3,359 8.7 -15.5°
Reaches altitude 10° 02:28:51 10° 20° (NNE) 2,422 7.8 -15.3°
Maximum altitude 02:34:11 65° 102° (ESE) 901 4.4 -14.8°
Enters shadow 02:38:43 14° 183° (S) 2,120 5.8 -14.3°
